Regional Weather Roundup
Issued by NWS

Home | Current Version | Previous Version | Text Only | Print | Product List | Glossary Off
Versions: 1 2 3 4 5 6 7 8 9 10 11 12 13 14 15 16 17 18 19 20 21 22 23 24 25 26 27 28 29 30 31 32 33 34 35 36 37 38 39 40 41 42 43 44 45 46 47 48 49 50

000
ASUS43 KLOT 300612
RWRIL

ILLINOIS REGIONAL WEATHER ROUNDUP
NATIONAL WEATHER SERVICE CHICAGO/ROMEOVILLE IL
100 AM CDT MON MAR 30 2015

NOTE: "FAIR" INDICATES FEW OR NO CLOUDS BELOW 12,000 FEET WITH NO
SIGNIFICANT WEATHER AND/OR OBSTRUCTIONS TO VISIBILITY.

* THESE STATIONS ARE NOT UNDER NWS QUALITY CONTROL. THEY ALSO MAY NOT
  REPORT WEATHER SUCH AS PRECIPITATION OR FOG.

ILZ001-002-007-009-015-016-024-300700-
NORTHWEST ILLINOIS

CITY           SKY/WX    TMP DP  RH WIND       PRES   REMARKS
MOLINE         CLEAR     43  30  60 W10       30.03R
6HR MIN TEMP:  41; 6HR MAX TEMP:  53;

STERLING*      CLEAR     37  28  70 NW9       30.00R WCI  31
SAVANNA*       CLEAR     42  30  63 W6        30.00R
$$

ILZ003-004-008-010-011-017-018-300700-
NORTH CENTRAL ILLINOIS

CITY           SKY/WX    TMP DP  RH WIND       PRES   REMARKS
ROCKFORD       PTCLDY    41  28  60 NW10      29.98R
6HR MIN TEMP:  41; 6HR MAX TEMP:  46;

FREEPORT*      CLEAR     38  29  68 W9        29.99R WCI  32
ROCHELLE*      CLEAR     37  30  74 W10       29.98R WCI  30
DE KALB*       MOCLDY    37  29  73 NW14      29.97R WCI  29
PERU*          CLEAR     38  31  75 W10       30.01R WCI  31
$$

ILZ005-006-012>014-019>023-300700-
NORTHEAST ILLINOIS

CITY           SKY/WX    TMP DP  RH WIND       PRES   REMARKS
CHICAGO-OHARE  MOCLDY    40  32  73 W6        29.94R
6HR MIN TEMP:  39; 6HR MAX TEMP:  47; 6HR PCP: TRACE;

CHICAGO-MIDWAY MOCLDY    42  33  70 W6        29.95R
6HR MIN TEMP:  42; 6HR MAX TEMP:  51;

AURORA         PTCLDY    36  28  73 W8        29.97R WCI  30
6HR MIN TEMP:  33; 6HR MAX TEMP:  50;

LANSING*       CLEAR     39  31  72 W5        29.96R
JOLIET*        PTCLDY    40  32  74 W5        29.97R
WAUKEGAN       FAIR      37  33  85 VRB3      29.92R
6HR MIN TEMP:  37; 6HR MAX TEMP:  46;

DUPAGE AIRPORT PTCLDY    40  30  67 W13       29.95R
6HR MIN TEMP:  37; 6HR MAX TEMP:  47; 6HR PCP: TRACE;

KANKAKEE*      CLEAR     37  32  84 W8        29.99R WCI  30
WHEELING       MOCLDY    41  33  73 W5        29.95S
6HR MIN TEMP:  39; 6HR MAX TEMP:  46;

MORRIS*        CLEAR     37  31  80 W10       29.97R WCI  29
ROMEOVILLE*    PTCLDY    40  31  68 NW10      29.96R
NORTHERLY ISL    N/A     43  33  68 W6          N/A
$$

LMZ740>746-300700-
SOUTHERN LAKE MICHIGAN

STATION/POSITION SKY/WX   TEMP    WIND        PRES    VSBY  WAVE
                          AIR SEA DIR/SP/G                  HT/PER
                          (F)     (DEG/KT/KT) (MB)    (MI)  (FT/S)
HARRISON CRIB              44     280/ 10/ 11   N/A
BURNHAM HARBOR             43     270/  6/  8   N/A
CALUMET HARBOR             43     250/  3/  5 1012.7R
BURNS HARBOR               41     280/  9/ 11 1014.6R
MICHIGAN CITY              38     280/  8/  9   N/A
$$

ILZ025>027-034>036-040-047-049-050-058-095>099-300700-
WEST-CENTRAL ILLINOIS

CITY           SKY/WX    TMP DP  RH WIND       PRES   REMARKS
QUINCY         CLEAR     45  34  65 W6        30.10R
GALESBURG*     CLEAR     37  29  75 W6        30.05R WCI  32
MACOMB*        CLEAR     35  29  79 W9        30.09R WCI  28
JACKSONVILLE*  CLEAR     42  34  73 W9        30.08R
PITTSFIELD*    CLEAR     47  37  68 W6        30.10S
$$

ILZ028>032-037-038-041>044-048-051>054-059>061-300700-
CENTRAL ILLINOIS

CITY           SKY/WX    TMP DP  RH WIND       PRES   REMARKS
PONTIAC        CLEAR     37  34  88 W9        30.01R WCI  30
BLOOMINGTON    CLEAR     43  33  67 W10       30.04R
DECATUR        CLEAR     47  36  65 NW10      30.05R
PEORIA         CLEAR     44  29  55 W6        30.05R
6HR MIN TEMP:  44; 6HR MAX TEMP:  56;

LACON*         CLEAR     41  29  63 NW5       30.02R
LINCOLN*       CLEAR     44  33  66 NW5       30.06R
SPRINGFIELD    CLEAR     40  34  79 W6        30.07R
6HR MIN TEMP:  37; 6HR MAX TEMP:  55;

TAYLORVILLE    CLEAR     43  36  75 W9        30.07R
$$

ILZ033-039-045-046-055>057-062-063-300700-
EAST-CENTRAL ILLINOIS

CITY           SKY/WX    TMP DP  RH WIND       PRES   REMARKS
CHAMPAIGN      CLEAR     36  34  92 NW5       30.03R WCI  32
DANVILLE*      PTCLDY    40  36  86 SW5       29.99S
RANTOUL*       CLEAR     35  34  96 SW5       30.02R WCI  30
MATTOON        CLEAR     44  38  79 W7        30.04R
PARIS*         CLEAR     41  38  91 W5        30.05R
$$

ILZ079-100>102-300700-
SOUTHWEST ILLINOIS

CITY           SKY/WX    TMP DP  RH WIND       PRES   REMARKS
ALTON          CLEAR     39  37  90 W6        30.10R WCI  35
BELLEVILLE     CLEAR     45  41  87 W3        30.09R
CAHOKIA*       CLEAR     45  39  79 W6        30.10R
SPARTA*        CLEAR     48  40  74 W5        30.11S
$$

ILZ064>066-069>071-074>076-080>082-084>086-088>090-092>094-300700-
SOUTH-CENTRAL ILLINOIS

CITY           SKY/WX    TMP DP  RH WIND       PRES   REMARKS
CARBONDALE     CLOUDY    52  43  71 W6        30.10S
6HR MIN TEMP:  51; 6HR MAX TEMP:  54;

CAIRO*         PTCLDY    50  47  88 NW7       30.09S
EFFINGHAM*     CLEAR     44  37  75 SW7       30.08R
MARION         CLOUDY    55  45  67 W3        30.10S
MT. VERNON     CLEAR     48  39  71 W3        30.09S
CENTRALIA*     CLEAR     45  38  78 W7        30.09S
SALEM*         CLEAR     46  40  79 W7        30.09S
METROPOLIS*    PTCLDY    52  48  85 W7        30.08S
$$

ILZ067-068-072-073-078-083-087-091-300700-
SOUTHEAST ILLINOIS

CITY           SKY/WX    TMP DP  RH WIND       PRES   REMARKS
LAWRENCEVILLE  PTCLDY    50  42  74 W10       30.06R
FLORA*         CLEAR     48  40  74 W7        30.08R
FAIRFIELD*     PTCLDY    49  43  79 W3        30.07S
HARRISBURG*    CLOUDY    53  45  75 W9        30.09F
ROBINSON*      PTCLDY    46  41  82 W10       30.06R
CARMI*         MOCLDY    52  42  67 W12       30.07S
$$

ABBREVIATIONS USED IN REMARKS
   TC - TEMPERATURE IN CELSIUS
  WCI - WIND CHILL INDEX
   HX - HEAT INDEX
  VSB - VISIBILITY
$$




USA.gov is the U.S. government's official web portal to all federal, state and local government web resources and services.